EW0139 Weather Reports


time (UTC)temp
C
wind
direction
speed
KPH
gust
KPH
rain 1hr
cm
rain 24hr
cm
rain mn
cm
humidity
%
barometer
mb
20260906085253 20 246 12.9 25.7 0.00 0.00 0.00 73 1015.6
20260906083741 20 278 9.7 9.7 0.00 0.00 0.00 76 1014.6
20260906082252 19 17 3.2 8.0 0.00 0.00 0.00 76 1014.2
20260906080741 20 20 0.0 6.4 0.00 0.00 0.00 75 1014.1
20260906075309 20 32 4.8 11.3 0.00 0.00 0.00 75 1013.7
20260906073801 20 2 3.2 8.0 0.00 0.00 0.00 74 1013.7
20260906072248 20 21 6.4 8.0 0.00 0.00 0.00 73 1013.9
20260906070742 20 357 4.8 14.5 0.00 0.00 0.00 73 1014.1
20260906065250 20 21 0.0 11.3 0.00 0.00 0.00 72 1013.9
20260906063742 20 18 6.4 8.0 0.00 0.00 0.00 71 1013.8
20260906062251 20 354 6.4 11.3 0.00 0.00 0.00 70 1013.9
20260906060740 20 40 1.6 9.7 0.00 0.00 0.00 70 1014.1
20260906055254 21 23 1.6 8.0 0.00 0.00 0.00 70 1014.3
20260906053743 21 4 1.6 8.0 0.00 0.00 0.00 69 1014.4
20260906052256 21 358 1.6 8.0 0.00 0.00 0.00 68 1014.6
20260906050744 21 16 3.2 9.7 0.00 0.00 0.00 67 1014.8
20260906045300 21 9 8.0 12.9 0.00 0.00 0.00 67 1014.8
20260906043749 21 11 11.3 14.5 0.00 0.00 0.00 66 1014.7
20260906042255 21 356 8.0 20.9 0.00 0.00 0.00 65 1014.8
20260906040745 21 354 3.2 19.3 0.00 0.00 0.00 64 1014.8
20260906035254 21 13 14.5 17.7 0.00 0.00 0.00 63 1015.0
20260906033746 21 347 6.4 20.9 0.00 0.00 0.00 63 1015.1
20260906032255 21 350 4.8 16.1 0.00 0.00 0.00 62 1015.1
20260906030759 22 317 6.4 19.3 0.00 0.00 0.00 61 1015.0
20260906025249 22 347 6.4 14.5 0.00 0.00 0.00 60 1014.7
20260906023752 22 340 3.2 14.5 0.00 0.00 0.00 59 1014.6
20260906022306 22 335 9.7 20.9 0.00 0.00 0.00 57 1014.2
20260906020749 23 358 3.2 11.3 0.00 0.00 0.00 55 1014.1
20260906015315 23 331 4.8 16.1 0.00 0.00 0.00 54 1013.8
20260906013742 24 322 12.9 25.7 0.00 0.00 0.00 52 1013.8
20260906012248 25 307 19.3 24.1 0.00 0.00 0.00 50 1013.5
20260906010753 26 312 17.7 33.8 0.00 0.00 0.00 49 1013.4
20260906005244 26 323 24.1 29.0 0.00 0.00 0.00 48 1013.3
20260906003750 27 287 17.7 33.8 0.00 0.00 0.00 47 1013.1
20260906002300 27 294 27.4 37.0 0.00 0.00 0.00 47 1013.0
20260906000744 27 320 19.3 35.4 0.00 0.00 0.00 46 1012.9
20260905235237 28 321 12.9 27.4 0.00 0.00 0.00 45 1012.7
20260905233742 28 320 9.7 17.7 0.00 0.00 0.00 45 1012.8
20260905232251 28 292 9.7 24.1 0.00 0.00 0.00 45 1012.8
20260905230741 28 354 4.8 19.3 0.00 0.00 0.00 44 1012.7
20260905225245 28 321 9.7 20.9 0.00 0.00 0.00 45 1012.8
20260905223754 28 316 11.3 29.0 0.00 0.00 0.00 44 1012.8
20260905222243 28 292 25.7 33.8 0.00 0.00 0.00 45 1012.8
20260905220749 28 304 16.1 29.0 0.00 0.00 0.00 44 1012.8
20260905215258 27 298 12.9 25.7 0.00 0.00 0.00 45 1012.8
20260905213741 28 289 19.3 30.6 0.00 0.00 0.00 45 1012.9
20260905212251 27 301 11.3 24.1 0.00 0.00 0.00 45 1013.0
20260905210759 27 319 16.1 25.7 0.00 0.00 0.00 46 1013.1
20260905205242 28 332 8.0 27.4 0.00 0.00 0.00 45 1013.1
20260905203749 27 310 11.3 24.1 0.00 0.00 0.00 47 1013.1
20260905202300 27 288 25.7 41.8 0.00 0.00 0.00 47 1013.2
20260905200808 26 292 24.1 29.0 0.00 0.00 0.00 47 1013.1
20260905195255 26 320 22.5 30.6 0.00 0.00 0.00 47 1013.2
20260905193801 26 288 24.1 35.4 0.00 0.00 0.00 48 1013.2
20260905192250 26 288 22.5 35.4 0.00 0.00 0.00 47 1013.6
20260905190819 25 288 22.5 40.2 0.00 0.00 0.00 48 1013.5
20260905185241 25 279 22.5 33.8 0.00 0.00 0.00 49 1013.6
20260905183752 26 306 27.4 35.4 0.00 0.00 0.00 48 1013.6
20260905182256 25 296 30.6 38.6 0.00 0.00 0.00 49 1013.6
20260905180742 25 289 19.3 33.8 0.00 0.00 0.00 49 1013.5
20260905175250 24 281 17.7 33.8 0.00 0.00 0.00 51 1013.6
20260905173819 23 306 20.9 29.0 0.00 0.00 0.00 53 1013.4
20260905172248 23 293 27.4 35.4 0.00 0.00 0.00 53 1013.4
20260905170754 23 281 20.9 32.2 0.00 0.00 0.00 53 1014.0
20260905165244 23 307 25.7 32.2 0.00 0.00 0.00 53 1013.6
20260905163753 22 258 24.1 33.8 0.00 0.00 0.00 53 1013.6
20260905162259 20 293 19.3 35.4 0.00 0.00 0.00 53 1013.2
20260905160749 20 264 25.7 37.0 0.00 0.00 0.00 56 1013.6
20260905155255 19 288 20.9 35.4 0.00 0.00 0.00 56 1014.1
20260905153744 18 294 24.1 30.6 0.00 0.00 0.00 58 1013.9
20260905152248 18 293 25.7 35.4 0.00 0.00 0.00 60 1014.3
20260905150757 18 300 24.1 33.8 0.00 0.00 0.00 59 1014.2
20260905145307 17 253 22.5 30.6 0.00 0.00 0.00 60 1014.1
20260905143752 17 281 25.7 29.0 0.00 0.00 0.00 61 1013.8
20260905142243 16 281 29.0 29.0 0.00 0.00 0.00 62 1013.7
20260905140751 16 281 19.3 29.0 0.00 0.00 0.00 63 1013.2
20260905135257 15 271 14.5 22.5 0.00 0.00 0.00 65 1013.2
20260905133746 13 257 12.9 16.1 0.00 0.00 0.00 66 1012.8
20260905132251 12 259 8.0 16.1 0.00 0.00 0.00 67 1012.4
20260905130756 12 261 9.7 19.3 0.00 0.00 0.00 67 1012.0
20260905125249 12 252 16.1 17.7 0.00 0.00 0.00 67 1011.7
20260905123757 12 284 16.1 16.1 0.00 0.00 0.00 67 1011.2
20260905122308 12 286 0.0 9.7 0.00 0.00 0.00 65 1011.4
20260905120753 12 284 1.6 11.3 0.00 0.00 0.00 64 1011.2
20260905115257 12 257 16.1 16.1 0.00 0.00 0.00 64 1012.2
20260905113747 13 275 3.2 8.0 0.00 0.00 0.00 62 1012.4
20260905112254 13 265 1.6 8.0 0.00 0.00 0.00 61 1012.5
20260905110801 13 273 11.3 16.1 0.00 0.00 0.00 60 1012.4
20260905105250 14 273 14.5 20.9 0.00 0.00 0.00 59 1012.2
20260905103752 15 275 20.9 20.9 0.00 0.00 0.00 56 1011.8
20260905102306 16 292 14.5 22.5 0.00 0.00 0.00 56 1011.5
20260905100747 17 282 16.1 27.4 0.00 0.00 0.00 52 1011.3
20260905095253 17 292 24.1 30.6 0.00 0.00 0.00 50 1011.2
20260905093741 17 286 17.7 29.0 0.00 0.00 0.00 49 1011.3
20260905092246 17 289 17.7 22.5 0.00 0.00 0.00 50 1011.2
20260905090753 17 298 12.9 22.5 0.00 0.00 0.00 50 1011.2